Orbital Elements at Epoch 2459200.5 (2020-Dec-17.0) TDB
Reference: JPL 13 (heliocentric ecliptic J2000)
Element | Value | Uncertainty (1-sigma) | Units |
e | .031159758805168 | 7.5854e-08 | |
a | 2.16868531678811 | 1.6477e-08 | au |
q | 2.101109605392683 | 1.6799e-07 | au |
i | 2.958048834576749 | 5.917e-06 | deg |
node | 242.6020585504716 | 0.00016238 | deg |
peri | 264.9904374804693 | 0.0001924 | deg |
M | 49.10150394229937 | 0.00010058 | deg |
tp | 2459041.394376749504 (2020-Jul-10.89437675) | 0.00032599 | TDB |
period | 1166.522810329552 3.19 | 1.3295e-05 3.64e-08 | d yr |
n | .3086094817968429 | 3.5172e-09 | deg/d |
Q | 2.236261028183537 | 1.6991e-08 | au |
|
| | Orbit Determination Parameters
Additional Information
|